Location: Poprad
(49.0500°N, 20.3000°E)
Time: 18:43:25
(UTC+02:00)

ITUPSAT 1 - Pass Details

Date: 27 April 2024
Orbit: 694 x 707 km, 98.5° (Epoch: 20 May)

Event Time Altitude Azimuth Distance (km) Brightness Sun altitude
Rises 21:41:45 0° 26° (NNE) 3,085 ? -15.9°
Reaches altitude 10° 21:44:33 10° 43° (NE) 2,161 ? -16.3°
Maximum altitude 21:48:06 21° 92° (E) 1,551 ? -16.7°
Enters shadow 21:48:20 21° 96° (E) 1,554 ? -16.7°
